Weather History for Pellston, MI

Change the Weather History Date:

Saturday, March 16, 2013

  Actual Average Record
Temperature  
Mean Temperature 19 °F -  
Max Temperature 24 °F 37 °F 66 °F (2012)
Min Temperature 15 °F 16 °F -12 °F (1956)
Degree Days  
Heating Degree Days 46    
Moisture  
Dew Point 10 °F    
Average Humidity 71    
Maximum Humidity 86    
Minimum Humidity 46    
Precipitation  
Precipitation 0.02 in - - ()
Sea Level Pressure  
Sea Level Pressure 29.98 in    
Wind  
Wind Speed 7 mph (NE)    
Max Wind Speed 14 mph    
Max Gust Speed -    
Visibility 5 miles    
Events Fog , Snow    
Averages and records for this station are not official NWS values.
T = Trace of Precipitation, MM = Missing Value Source: NWS Daily Summary

Daily Weather History Graph

Daily Weather History Graph

Search for Another Location

Airport:

Trip Planner

Search our weather history database for the weather conditions in past years. The results will help you decide how hot, cold, wet, or windy it might be!

Date:

Astronomy

Mar. 16, 2013 Rise Set
Actual Time 7:49 AM EDT 7:46 PM EDT
Civil Twilight 7:19 AM EDT 8:16 PM EDT
Nautical Twilight 6:45 AM EDT 8:50 PM EDT
Astronomical Twilight 6:10 AM EDT 9:26 PM EDT
Moon 10:03 AM EDT (3/16) 12:13 AM EDT (3/16)
Length of Visible Light 12h 56m
Length of Day
11h 57m
Waxing Crescent, 23% of the Moon is Illuminated
Mar 16
Waxing Crescent
Mar 19
First Quarter
Mar 27
Full
Apr 3
Last Quarter
Apr 10
New

Hourly Weather History & Observations

Time (EDT) Temp. Windchill Dew Point Humidity Pressure Visibility Wind Dir Wind Speed Gust Speed Precip Events Conditions
1:54 AM 19.9 °F - 10.0 °F 65% 29.98 in 10.0 mi Calm Calm - N/A   Overcast
2:54 AM 19.9 °F 14.9 °F 10.0 °F 65% 29.98 in 10.0 mi North 3.5 mph - N/A   Overcast
3:33 AM 19.4 °F 11.5 °F 12.2 °F 74% 29.93 in 2.0 mi North 5.8 mph - 0.00 in Snow Light Snow
3:49 AM 19.4 °F 12.8 °F 14.0 °F 80% 29.92 in 3.0 mi NE 4.6 mph - 0.00 in Snow Light Snow
3:54 AM 19.0 °F 11.1 °F 14.0 °F 81% 29.96 in 2.5 mi ENE 5.8 mph - 0.00 in Snow Light Snow
4:16 AM 19.4 °F 10.4 °F 14.0 °F 80% 29.93 in 2.0 mi NE 6.9 mph - 0.00 in Snow Light Snow
4:23 AM 19.4 °F 7.2 °F 14.0 °F 80% 29.93 in 1.5 mi ENE 11.5 mph - 0.00 in Snow Light Snow
4:36 AM 17.6 °F 7.3 °F 12.2 °F 79% 29.93 in 2.5 mi ENE 8.1 mph - 0.00 in Snow Light Snow
4:46 AM 17.6 °F 5.0 °F 12.2 °F 79% 29.92 in 3.0 mi ENE 11.5 mph - 0.00 in Snow Light Snow
4:54 AM 18.0 °F 4.2 °F 12.0 °F 78% 29.95 in 2.0 mi ENE 13.8 mph - 0.00 in Snow Light Snow
5:54 AM 17.1 °F 4.3 °F 10.9 °F 77% 29.96 in 2.5 mi ENE 11.5 mph - 0.00 in Snow Light Snow
6:00 AM 17.6 °F 6.4 °F 10.4 °F 73% 29.92 in 3.0 mi ENE 9.2 mph - 0.00 in Snow Light Snow
6:39 AM 15.8 °F 4.2 °F 10.4 °F 79% 29.93 in 2.5 mi ENE 9.2 mph - 0.00 in Snow Light Snow
6:54 AM 16.0 °F 3.6 °F 10.9 °F 81% 29.97 in 2.0 mi ENE 10.4 mph - 0.00 in Snow Light Snow
7:21 AM 15.8 °F 4.2 °F 10.4 °F 79% 29.94 in 1.8 mi ENE 9.2 mph - 0.00 in Snow Light Snow
7:42 AM 15.8 °F 3.4 °F 10.4 °F 79% 29.94 in 3.0 mi ENE 10.4 mph - 0.00 in Snow Light Snow
7:54 AM 15.1 °F 6.4 °F 10.0 °F 80% 29.99 in 4.0 mi ENE 5.8 mph - 0.00 in Snow Light Snow
8:01 AM 15.8 °F 4.2 °F 10.4 °F 79% 29.95 in 2.5 mi ENE 9.2 mph - 0.00 in Snow Light Snow
8:17 AM 15.8 °F 3.4 °F 8.6 °F 73% 29.96 in 4.0 mi ENE 10.4 mph - 0.00 in Snow Light Snow
8:29 AM 15.8 °F 3.4 °F 8.6 °F 73% 29.96 in 2.5 mi ENE 10.4 mph - 0.00 in Snow Light Snow
8:38 AM 15.8 °F 3.4 °F 8.6 °F 73% 29.96 in 1.8 mi ENE 10.4 mph - 0.00 in Snow Light Snow
8:42 AM 15.8 °F 4.2 °F 8.6 °F 73% 29.97 in 3.0 mi ENE 9.2 mph - 0.00 in Snow Light Snow
8:54 AM 15.1 °F 1.8 °F 9.0 °F 77% 30.01 in 5.0 mi ENE 11.5 mph - 0.00 in Snow Light Snow
9:54 AM 15.1 °F 2.5 °F 8.1 °F 74% 30.02 in 5.0 mi ENE 10.4 mph - 0.00 in Snow Light Snow
10:43 AM 15.8 °F 3.4 °F 8.6 °F 73% 29.99 in 3.0 mi ENE 10.4 mph - 0.00 in Snow Light Snow
10:54 AM 16.0 °F 4.4 °F 9.0 °F 74% 30.03 in 2.5 mi NE 9.2 mph - 0.00 in Snow Light Snow
11:18 AM 15.8 °F 5.1 °F 8.6 °F 73% 29.98 in 2.5 mi ENE 8.1 mph - 0.00 in Snow Light Snow
11:29 AM 17.6 °F 6.4 °F 8.6 °F 68% 29.98 in 3.0 mi NE 9.2 mph - 0.00 in Snow Light Snow
11:54 AM 17.1 °F 11.7 °F 9.0 °F 71% 30.03 in 4.0 mi ENE 3.5 mph - 0.00 in   Haze
12:54 PM 19.0 °F - 9.0 °F 65% 30.03 in 8.0 mi Calm Calm - 0.00 in   Overcast
1:54 PM 23.0 °F 17.0 °F 7.0 °F 50% 30.02 in 10.0 mi NNE 4.6 mph - N/A   Mostly Cloudy
2:02 PM 21.2 °F 16.4 °F 8.6 °F 58% 29.98 in 10.0 mi North 3.5 mph - N/A   Overcast
2:54 PM 23.0 °F 15.8 °F 8.1 °F 53% 30.01 in 10.0 mi North 5.8 mph - N/A   Overcast
3:54 PM 23.0 °F 11.7 °F 7.0 °F 50% 30.00 in 10.0 mi NW 11.5 mph - N/A   Mostly Cloudy
4:54 PM 21.0 °F 9.9 °F 3.9 °F 48% 30.00 in 10.0 mi NW 10.4 mph - N/A   Clear
5:54 PM 21.9 °F 9.8 °F 3.9 °F 46% 30.01 in 10.0 mi NW 12.7 mph - N/A   Clear
6:54 PM 21.0 °F 10.6 °F 3.0 °F 46% 30.01 in 10.0 mi West 9.2 mph - N/A   Clear
7:54 PM 19.9 °F 12.1 °F 3.9 °F 50% 30.01 in 10.0 mi WSW 5.8 mph - N/A   Clear
8:54 PM 18.0 °F - 5.0 °F 57% 30.01 in 10.0 mi Calm Calm - N/A   Clear
9:54 PM 16.0 °F - 6.1 °F 65% 30.01 in 10.0 mi Calm Calm - N/A   Overcast
10:54 PM 19.9 °F 12.1 °F 10.0 °F 65% 30.03 in 6.0 mi SSW 5.8 mph - 0.00 in Snow Light Snow
11:07 PM 19.4 °F 9.5 °F 12.2 °F 74% 29.99 in 3.0 mi SW 8.1 mph - 0.00 in Snow Light Snow
11:16 PM 19.4 °F 10.4 °F 12.2 °F 74% 29.99 in 1.8 mi SW 6.9 mph - 0.00 in Snow Light Snow
11:34 PM 19.4 °F 11.5 °F 15.8 °F 86% 30.00 in 0.8 mi SW 5.8 mph - 0.01 in Snow Light Snow
11:43 PM 19.4 °F 11.5 °F 15.8 °F 86% 30.00 in 0.5 mi SSW 5.8 mph - 0.02 in Fog , Snow Snow
11:52 PM 19.4 °F 11.5 °F 15.8 °F 86% 30.00 in 1.0 mi SSW 5.8 mph - 0.02 in Snow Light Snow
11:54 PM 19.0 °F 11.1 °F 15.1 °F 85% 30.04 in 1.2 mi SW 5.8 mph - 0.02 in Snow Light Snow